Weather in Chubarovo

Russia / Kaluga Oblast     55°11′51″N   36°55′07″E
temp.,
°C
wind,
m/s
gust,
m/s
humid.,
%
clouds,
%
prec.,
mm/h
press.,
hPa
HPBL,
m
29 july, thu
thu2900:00+16s279964 0.8 1008254
03:00+17wsw3799100 0.9 1007428
06:00+17w3899100 0.1 1007356
09:00+20wnw468344 0.1 1007727
12:00+25wnw465329 0.0 10071521
15:00+25nw156399 0.0 1006735
18:00+25wnw2758100 0.0 1006564
21:00+20sw017661 0.0 100611
30 july, fri
fri3000:00+18s2284100 0.0 100612
03:00+17ssw228768 0.3 100538
06:00+17nnw1698100 2.9 1005237
09:00+19e019367 3.5 1005170
12:00+19wnw2496100 1.5 1005236
15:00+23w457787 2.3 10051041
18:00+23wnw37740 1.1 1004711
21:00+19w388689 1.3 1004193
31 july, sat
sat3100:00+16wsw2583100 0.0 100596
03:00+17wsw39765 0.0 1005305
06:00+15wsw312810 0.0 1006338
09:00+20wsw510550 0.0 10061039
12:00+24wsw693927 0.0 10062001
15:00+26wsw6103638 0.0 10062511
18:00+25w4944100 0.0 10062034
21:00+18sw25700 0.0 100874
1 august, sun
sun100:00+16sw277496 0.0 1009123
03:00+15wsw2381100 0.0 101060
06:00+16ssw2582100 0.0 1010109
09:00+23ssw4758100 0.1 1009551
12:00+26ssw61355100 0.4 10081255
15:00+28wsw61351100 0.4 10062268
18:00+25wsw41064100 0.0 1007954
21:00+19wnw2294100 1.7 100734
2 august, mon
mon200:00+18nw1197100 0.5 100818
03:00+17w119798 0.5 100814
06:00+17sw239698 0.0 100889
09:00+22sw34760 0.0 1008452
12:00+27sw354564 0.0 10071665
15:00+28ssw464199 0.0 10061848
18:00+24s2759100 0.0 1005194
21:00+20s237430 0.1 100347